Theta_e
329 327 328 330 331 330 329 329 327 326 327 328 329 329 327 326 327 327 326 326 325 322 321 322 322 323 322 320 322 326 326 326 324 320 320 321 320 320 322 322 323 325 326 326 327 327 326 326 327 326 326 326 326 325 324 323 322 322 321 321 321 320 320 319 317 316 316 316 315 315 313 311 310 310 309 307 307 307 307 309 310 310 310 310 309
330 329 328 330 332 330 329 328 326 327 328 328 329 329 327 326 327 326 325 326 325 323 323 323 323 323 318 316 323 326 325 325 324 321 322 323 322 322 323 324 323 322 324 326 327 327 326 326 327 326 326 326 324 323 322 322 322 321 319 319 320 321 320 319 318 316 316 316 315 314 314 312 310 309 308 308 308 308 308 309 310 310 309 310 310
330 330 329 330 331 330 330 328 326 326 328 328 328 328 327 327 327 326 325 325 324 324 325 325 324 321 316 316 322 324 323 325 324 322 323 323 322 322 323 325 324 321 322 326 327 327 327 326 327 326 326 325 322 322 322 321 321 320 319 319 319 319 319 318 318 317 315 315 314 313 312 312 311 310 311 311 311 311 311 311 311 310 310 311 311
331 330 330 330 331 330 330 328 325 326 328 328 328 328 328 327 327 327 325 322 323 326 326 325 324 322 319 318 320 322 323 323 323 322 322 321 321 322 322 324 323 321 323 326 326 327 327 326 327 326 325 323 322 321 321 320 320 319 318 318 318 319 318 318 317 316 315 314 313 313 312 311 312 312 312 312 312 312 312 312 312 312 312 312 312
331 331 330 329 330 330 329 327 324 326 328 328 328 328 327 326 327 327 323 318 322 327 325 323 324 323 321 319 320 323 324 322 322 323 322 320 321 322 323 323 322 322 323 325 325 326 327 326 326 325 323 322 321 321 320 321 320 318 318 318 318 318 318 317 317 316 316 315 313 312 312 312 312 312 313 313 313 313 313 313 313 313 313 313 313
331 331 330 329 330 330 329 325 324 327 328 327 328 327 324 324 326 324 318 318 323 327 324 323 323 323 321 318 320 324 323 321 323 323 321 320 320 321 322 322 322 323 323 323 325 326 326 325 324 323 322 321 321 320 320 320 320 319 319 319 318 318 318 318 318 317 317 317 315 312 312 312 312 312 312 313 313 313 313 313 313 313 314 314 314
330 331 330 330 331 331 328 324 324 327 328 327 328 326 323 324 325 320 318 321 325 326 324 324 324 322 320 318 320 323 322 321 322 321 319 319 319 320 321 321 322 323 322 321 323 325 325 324 323 322 322 322 321 320 320 320 320 319 319 319 318 318 318 319 319 318 318 319 317 315 314 314 312 312 313 313 313 313 313 313 313 313 313 314 314
329 330 330 330 330 330 327 324 324 326 327 327 327 326 325 325 323 320 322 324 325 325 324 324 324 320 318 318 321 323 322 320 322 321 319 318 318 318 320 321 322 323 322 321 322 323 323 322 322 322 322 321 321 320 320 319 320 320 319 319 319 319 319 318 319 319 318 319 319 318 318 316 314 313 314 313 313 313 313 313 313 313 313 314 314
329 329 329 329 330 328 326 325 325 326 327 327 327 326 326 325 324 324 324 324 325 325 324 323 322 319 318 318 319 321 321 320 321 320 319 317 317 318 320 321 321 321 322 321 321 323 322 321 321 321 321 321 321 321 320 319 319 320 319 319 319 319 319 319 319 319 319 319 319 320 320 318 317 316 314 313 313 314 315 315 315 315 314 314 314
328 328 329 329 330 329 327 325 326 326 327 327 326 326 325 325 325 326 325 323 323 323 322 322 322 319 318 318 317 319 320 320 320 320 319 318 317 318 320 320 320 320 321 321 321 322 321 320 321 321 321 321 321 320 320 318 318 318 318 318 319 319 319 319 320 320 319 319 319 320 320 319 319 318 316 315 315 316 317 317 316 316 316 315 315
327 328 328 329 329 329 327 326 325 325 327 327 325 324 325 325 325 325 323 322 321 321 320 322 321 319 319 318 317 317 319 319 320 319 318 318 319 319 319 319 319 319 320 320 320 321 320 320 321 321 321 321 321 321 320 317 316 316 317 317 318 319 319 319 320 320 320 319 319 319 319 319 319 319 318 318 318 318 318 318 317 317 317 316 316
327 326 327 328 329 328 327 327 326 325 326 326 325 324 325 324 323 322 321 321 321 321 320 320 320 319 319 318 317 317 318 318 319 319 319 319 319 319 319 319 319 319 319 320 320 320 320 320 320 320 319 319 319 319 318 316 315 316 317 317 317 318 318 317 318 319 319 319 319 319 319 319 319 319 319 319 319 318 318 318 317 317 317 317 316
326 326 326 327 328 329 328 327 327 326 325 325 325 325 325 323 322 321 320 320 321 320 319 319 320 320 319 318 318 318 317 318 318 319 319 320 320 320 320 319 319 319 319 319 319 319 320 320 320 320 320 319 318 317 316 315 315 315 316 316 317 317 317 316 316 317 317 317 317 317 318 318 318 318 318 319 319 319 319 319 318 318 317 317 317
326 326 326 326 327 328 327 326 326 326 325 325 325 325 324 323 322 321 319 319 320 320 319 320 320 320 319 319 318 318 318 318 318 318 319 319 320 320 320 319 319 319 319 319 319 319 320 320 320 320 320 320 320 319 319 318 318 317 317 317 317 318 318 317 317 316 316 317 316 317 317 317 317 317 317 318 318 318 318 318 318 318 318 318 317
324 326 326 326 326 326 325 324 326 326 325 325 325 325 324 322 321 320 319 319 319 320 319 319 320 320 319 319 319 319 318 318 318 318 319 319 320 320 319 319 319 319 319 319 319 319 319 320 320 321 320 320 320 321 320 320 320 319 319 319 318 318 318 318 317 316 316 316 316 316 317 317 317 317 317 317 318 318 318 318 318 318 318 318 318
321 323 324 324 325 325 323 321 323 324 325 324 325 325 324 322 321 321 321 320 320 320 320 320 320 320 319 320 320 319 318 318 318 318 318 319 320 320 319 319 319 318 318 318 319 319 319 319 320 319 319 318 319 320 319 318 318 319 319 319 318 318 317 317 317 316 316 316 316 316 317 317 316 316 316 317 318 319 319 318 318 318 318 318 318
319 319 320 320 321 323 323 322 322 323 324 324 324 324 323 322 321 321 321 320 320 319 320 320 320 319 319 318 316 313 312 313 315 316 316 317 318 319 319 319 319 317 315 315 315 315 316 316 316 317 316 315 315 317 318 317 317 317 318 318 318 318 318 318 317 317 317 316 316 316 315 315 316 316 316 317 318 319 318 316 316 318 318 317 317
317 318 318 317 317 319 321 322 322 323 323 323 323 322 321 321 320 318 318 317 315 314 315 316 317 317 316 315 312 310 309 310 311 311 312 313 315 317 317 316 315 313 312 311 311 311 312 312 312 313 313 312 312 315 318 318 317 317 317 317 317 317 317 317 316 315 315 315 315 315 316 315 316 316 316 317 317 318 317 316 316 316 316 315 315
313 315 316 317 317 317 318 318 319 320 320 319 320 319 319 319 318 317 317 317 315 313 313 314 315 315 315 314 313 311 311 310 310 309 310 310 311 312 312 312 311 310 310 310 310 311 311 311 312 313 313 314 314 316 317 317 316 316 315 315 315 314 314 314 313 312 312 312 313 314 314 314 313 313 313 314 314 315 316 315 315 315 315 315 314
310 312 313 315 316 317 317 317 317 317 317 317 317 317 316 317 317 316 316 316 316 316 316 316 315 315 314 313 312 310 311 311 311 311 310 310 310 310 310 310 310 310 310 310 311 312 312 313 314 315 315 316 317 317 316 315 314 314 313 312 312 312 312 312 312 311 311 311 312 312 312 311 311 311 311 311 312 313 315 315 315 315 315 315 315
308 309 311 312 314 315 316 317 317 316 316 316 316 316 316 316 315 315 315 315 316 316 316 316 315 314 313 313 312 311 311 312 312 312 312 311 311 311 311 311 311 311 311 311 312 313 313 314 314 315 316 316 316 315 314 313 312 311 310 310 309 309 309 310 309 309 309 308 309 308 308 308 308 308 307 307 308 309 310 312 314 315 315 315 315
305 306 307 308 309 310 312 313 314 315 315 316 316 316 316 316 316 316 316 316 316 317 317 316 316 315 315 314 314 314 314 314 314 314 314 314 315 314 314 314 313 313 313 313 314 314 314 315 315 315 315 314 312 309 307 306 305 305 304 303 303 303 303 303 302 302 301 301 301 301 301 302 301 301 301 301 301 302 303 305 308 309 310 310 311
302 302 303 304 304 305 306 307 308 309 311 313 314 314 314 313 313 313 313 313 313 314 314 313 314 315 315 314 314 314 314 314 313 313 312 312 313 314 314 314 315 315 315 315 315 314 313 312 311 309 307 305 303 301 300 299 299 298 298 298 298 298 298 298 298 299 299 300 300 300 300 299 299 300 301 301 301 301 301 302 304 305 307 308 309
301 301 301 302 302 303 303 304 304 305 306 307 308 309 310 309 309 308 308 308 308 309 308 308 308 309 309 309 309 309 309 308 307 307 306 306 306 307 309 311 311 311 311 310 308 306 305 304 303 301 300 299 298 297 297 298 298 298 299 299 299 300 300 300 302 303 303 304 303 303 302 303 303 304 304 305 305 306 306 307 308 309 310 310 310
299 300 300 300 301 302 302 302 303 303 304 305 305 306 307 308 308 309 308 306 306 306 306 306 306 306 306 306 306 306 305 304 303 302 301 300 300 301 302 302 302 302 301 301 300 299 299 298 298 298 297 297 298 298 299 300 301 302 303 304 304 304 304 305 305 306 306 306 306 305 305 305 305 305 305 304 305 305 306 307 308 309 309 310 310
298 299 298 298 299 300 300 300 301 301 302 303 304 304 305 305 306 307 307 306 305 305 306 306 306 306 305 305 305 304 303 302 302 301 300 298 298 298 298 298 298 298 298 297 297 298 297 297 298 298 298 298 299 300 301 302 303 304 305 305 305 305 305 306 306 306 307 307 307 307 307 306 306 305 304 304 303 302 302 304 306 307 307 308 308
300 300 299 298 298 298 298 298 298 299 299 300 302 303 304 305 305 305 305 304 304 305 305 305 306 305 305 305 304 304 304 303 302 302 299 297 297 297 297 297 297 297 297 298 298 298 298 299 299 300 300 301 301 301 302 302 303 304 304 304 304 304 304 304 304 305 306 307 307 307 307 306 305 304 304 303 302 301 301 303 304 305 305 306 306
301 301 301 301 301 300 300 299 298 297 297 297 298 300 302 304 304 304 304 304 304 304 304 305 305 305 304 304 304 304 304 304 304 302 299 297 297 297 297 298 298 298 298 298 298 299 300 301 302 302 302 303 302 302 302 303 303 303 303 303 303 303 303 303 303 304 305 306 306 305 305 304 304 303 303 302 301 300 301 303 304 304 304 304 304
300 300 300 301 301 302 302 301 300 300 300 299 298 297 298 299 300 301 301 301 302 303 303 304 305 305 304 304 304 304 304 303 302 300 298 297 298 298 298 298 298 298 298 298 299 300 301 301 302 302 302 302 302 302 302 302 302 302 302 302 302 302 302 302 302 303 303 303 303 303 303 302 302 302 301 301 300 301 302 304 304 304 304 303 303
299 299 299 300 301 301 302 302 302 302 302 302 301 299 298 297 297 298 298 298 298 299 299 300 301 301 301 301 300 301 301 300 298 297 298 298 298 298 297 297 297 297 297 298 299 301 301 301 302 302 302 302 302 302 302 302 302 302 302 302 302 302 301 301 302 302 302 302 301 301 301 301 300 300 300 300 300 301 302 303 303 303 303 303 302
299 299 299 300 300 301 301 301 301 301 302 302 303 302 300 299 298 298 297 297 297 297 297 297 298 298 298 298 298 298 298 298 298 298 298 297 297 297 296 296 296 297 297 298 299 300 300 301 301 302 302 301 301 301 301 301 301 301 301 301 301 301 301 301 300 300 300 300 300 300 299 299 299 299 299 299 300 301 301 301 302 302 302 301 301
300 300 300 300 300 300 301 301 301 301 301 302 302 302 301 301 299 299 298 298 298 297 297 297 297 297 297 297 297 297 297 297 297 297 297 296 296 296 296 296 296 297 297 298 298 299 299 300 301 302 301 301 301 301 301 300 300 300 299 300 300 300 300 300 299 299 300 299 299 299 299 298 298 298 298 299 299 300 300 300 300 300 300 299 299
300 300 300 300 300 300 300 300 300 300 300 301 301 301 301 302 301 300 300 299 299 299 298 297 297 296 296 296 296 296 296 296 296 296 296 296 297 297 297 297 296 297 297 297 297 297 298 299 300 301 301 301 301 300 300 300 299 298 298 298 298 299 299 299 299 299 299 299 298 298 298 298 298 297 298 298 299 299 298 298 298 298 298 298 298
299 299 299 300 300 300 300 300 300 300 300 300 300 300 300 301 301 301 301 300 300 300 299 298 297 296 296 296 296 296 296 296 296 297 297 297 297 297 297 296 296 296 297 296 297 297 297 297 298 299 299 300 300 300 300 299 299 298 298 297 297 297 297 297 297 297 297 297 297 297 297 297 297 297 297 297 297 297 297 296 296 296 296 296 296
299 299 299 299 299 299 299 299 300 300 300 300 300 300 300 300 300 301 301 301 301 300 299 299 298 297 296 296 296 296 296 297 297 297 297 297 297 297 296 296 296 296 296 297 297 297 297 298 298 298 298 298 298 298 298 297 297 297 296 296 296 296 297 296 296 296 296 296 296 296 296 296 296 296 296 296 295 295 294 294 294 293 293 294 295
298 298 298 297 296 297 298 298 298 300 300 300 300 300 299 299 300 300 300 301 300 299 299 299 298 298 297 297 296 296 296 296 296 296 297 296 296 296 296 296 296 296 297 297 297 298 298 298 298 298 297 297 296 295 295 295 295 295 295 295 296 296 297 296 296 296 296 296 296 296 296 296 296 295 295 295 294 293 293 293 293 292 292 293 294
298 298 298 296 296 297 299 298 298 299 299 299 299 299 299 299 299 299 299 300 300 299 299 298 298 298 298 297 297 296 296 296 296 295 295 296 296 296 296 296 297 298 298 298 298 298 299 299 298 296 295 295 294 294 294 294 294 295 295 295 296 296 296 296 296 296 296 296 296 296 295 295 295 294 294 294 293 293 293 293 293 293 293 293 294
298 298 298 297 296 298 299 298 297 298 298 299 299 299 299 299 299 298 298 299 299 299 299 298 298 298 298 297 297 296 296 295 295 295 295 295 296 297 297 297 298 298 299 299 299 299 299 298 297 296 295 294 294 294 294 295 295 295 295 295 295 295 295 295 295 295 296 296 295 295 294 294 293 293 293 293 293 293 293 293 293 293 293 293 293
299 298 298 297 297 298 298 297 297 298 298 298 299 298 298 298 298 298 298 298 298 298 298 298 298 297 297 297 297 296 296 295 295 295 295 296 296 297 297 297 297 298 298 298 299 299 298 298 297 296 296 295 295 295 295 295 295 295 294 294 294 295 295 295 295 295 295 295 294 294 294 293 293 292 292 292 293 293 293 293 293 293 293 293 293
299 298 298 297 297 297 297 297 297 297 298 298 298 298 298 298 298 298 298 298 298 298 298 297 296 296 296 296 296 296 295 295 294 294 295 296 296 296 296 296 296 297 297 298 298 298 298 298 298 297 295 294 294 294 295 295 294 294 294 294 294 294 293 293 293 293 293 293 292 293 293 293 292 292 292 292 292 292 292 292 292 292 292 292 292
299 298 298 297 297 297 297 297 297 297 297 298 298 298 298 298 297 298 298 298 297 297 297 296 295 295 295 295 295 295 295 294 294 294 295 295 295 296 296 295 296 296 296 297 297 297 297 297 298 297 295 294 294 294 294 294 294 294 294 294 293 293 292 292 291 291 291 291 291 291 292 292 292 292 291 291 292 292 292 292 292 292 292 292 292
298 298 298 298 297 297 297 297 297 297 297 297 297 297 297 297 297 297 297 297 297 297 297 296 295 295 295 295 295 295 294 294 294 294 294 294 295 295 295 295 295 295 296 296 296 296 296 296 296 296 295 294 294 294 294 294 294 294 294 294 293 292 292 291 291 290 290 290 290 291 291 291 291 291 291 291 292 291 292 292 292 292 292 292 292
298 298 298 298 297 297 297 297 297 297 297 297 297 297 297 297 297 297 297 297 297 297 296 296 296 296 295 295 295 294 294 293 293 294 294 294 294 294 294 294 294 294 295 295 295 295 295 295 295 295 295 294 294 294 294 294 294 294 294 293 293 292 292 292 291 291 290 290 290 291 291 291 291 291 291 291 292 292 292 291 291 291 291 291 291
298 298 298 298 298 297 296 296 296 297 296 296 296 296 296 297 297 297 297 296 296 296 296 296 296 296 296 295 295 294 294 293 293 293 293 294 294 293 293 294 294 294 294 294 294 295 295 295 295 295 294 294 294 294 294 294 294 293 293 292 292 292 292 292 291 291 291 291 291 291 291 290 291 291 291 291 291 291 291 291 291 291 291 291 291
298 298 298 298 298 297 296 296 296 296 296 296 295 295 296 296 297 297 297 296 296 295 295 295 295 295 295 295 295 294 293 293 293 293 293 293 293 293 293 293 293 293 293 293 294 294 294 294 294 294 294 294 293 293 293 293 293 293 293 292 292 292 291 291 291 291 291 291 291 291 291 291 291 291 291 290 291 291 291 291 291 291 291 291 291
298 298 298 297 297 297 296 296 296 296 296 296 295 295 296 297 297 296 296 296 296 295 295 295 295 295 295 294 294 294 293 293 293 293 292 292 293 293 293 293 292 292 292 292 293 293 293 293 293 293 293 293 293 293 293 293 293 292 292 291 290 289 289 289 290 290 290 290 291 291 291 291 291 290 290 290 290 291 290 290 290 290 290 290 290
298 298 298 298 297 297 296 296 296 296 296 296 295 295 296 297 297 296 296 296 295 295 295 294 295 295 295 294 294 293 293 293 293 293 293 292 292 292 293 292 292 291 291 291 291 292 292 292 292 292 292 292 292 292 291 291 291 290 289 288 288 287 288 289 290 290 290 290 290 291 291 291 291 291 290 290 290 290 290 290 290 290 290 290 290
297 298 298 298 297 297 297 296 297 296 296 296 296 295 295 296 296 296 296 295 294 294 295 295 295 295 294 294 294 293 293 293 293 293 293 292 291 291 292 291 291 290 290 290 289 289 290 290 290 290 290 289 289 289 289 289 289 288 288 288 289 289 289 290 290 290 290 290 290 290 290 290 290 290 290 290 290 290 290 290 290 290 290 290 290
297 298 298 298 297 297 297 297 297 296 296 296 296 295 294 295 296 296 296 295 294 295 296 296 295 294 294 294 294 294 293 293 293 293 293 293 292 291 291 291 290 290 290 289 289 289 289 289 289 289 289 289 289 290 290 290 290 290 290 290 290 290 290 290 290 290 290 290 290 290 290 289 289 290 290 290 290 290 290 290 290 290 290 290 289
298 297 298 298 297 297 297 297 296 296 296 296 296 296 295 294 295 296 296 295 295 295 295 295 295 295 294 294 294 294 293 293 293 293 293 293 292 291 290 290 290 290 290 290 290 290 290 290 290 290 290 291 291 291 291 291 291 291 291 291 291 290 290 290 289 289 289 289 289 289 289 289 289 289 288 288 288 288 288 288 289 289 289 289 289
298 298 298 298 297 297 297 297 296 296 296 296 296 296 296 295 295 295 295 295 295 295 295 295 295 295 294 294 294 294 293 293 294 293 293 293 293 292 291 290 290 290 290 290 290 290 290 290 290 291 291 291 291 291 291 291 291 291 291 291 291 290 290 290 289 289 289 289 289 289 289 288 287 287 286 286 286 286 285 285 286 286 287 288 288
Wind_Speed
15 17 19 22 24 22 22 23 23 23 24 23 21 21 21 21 20 17 17 16 13 13 15 16 15 12 9 10 15 16 14 12 10 11 13 13 11 11 10 9 9 9 11 11 11 14 15 15 13 14 16 16 14 15 18 19 16 13 9 11 19 22 20 18 16 16 17 13 11 8 6 5 7 10 11 10 9 7 7 9 9 7 6 6 6
19 20 21 23 24 22 24 25 24 25 25 23 23 22 21 21 20 18 17 16 13 14 15 14 12 9 8 13 17 16 15 13 11 12 13 12 12 10 8 9 8 6 9 10 11 15 16 15 13 13 13 14 16 17 17 15 12 10 7 9 17 22 20 18 17 17 16 14 13 10 7 6 6 9 11 8 6 5 6 8 9 8 7 7 7
19 20 22 24 24 23 26 27 26 26 25 24 23 22 21 21 21 19 18 16 14 15 14 12 10 8 9 13 15 16 16 15 12 12 13 12 10 5 7 11 8 5 6 9 13 16 16 14 14 14 15 16 18 16 13 12 11 11 12 11 11 15 17 16 16 15 15 14 14 12 9 8 7 7 8 5 4 4 4 4 6 7 6 6 7
20 21 22 23 24 26 28 29 28 27 26 24 24 23 22 21 20 19 17 16 18 17 13 11 10 9 9 11 13 15 15 16 14 12 13 13 9 6 9 12 8 4 7 9 12 15 15 14 15 15 16 18 18 16 13 11 10 11 13 13 9 8 11 14 13 11 11 12 13 12 10 9 8 5 6 6 7 8 6 5 6 6 6 6 7
21 22 23 23 25 28 30 31 29 28 27 25 26 25 22 21 20 17 16 18 20 17 13 12 11 10 8 8 13 14 12 14 14 11 13 14 10 10 12 10 7 7 9 9 11 14 15 15 15 15 17 17 17 16 11 8 9 12 13 13 9 6 9 12 11 8 8 9 12 13 12 11 10 9 8 10 11 12 11 10 9 8 8 8 9
22 23 24 26 28 30 33 34 32 30 28 27 28 26 23 22 19 16 16 20 20 15 13 14 13 11 8 7 12 13 10 12 12 8 12 14 10 11 12 9 9 10 9 9 11 14 17 17 16 15 15 14 14 13 9 6 8 11 12 10 7 7 10 10 9 9 8 7 10 14 14 13 14 14 13 13 15 15 14 13 13 12 11 10 10
19 21 23 27 30 32 35 36 33 31 29 29 28 25 23 22 19 17 18 21 20 15 15 16 13 12 10 9 13 14 11 13 12 8 11 13 10 12 13 9 10 11 8 7 10 15 17 18 16 14 12 13 13 12 10 8 6 6 8 9 7 8 10 8 7 10 10 7 9 13 13 13 15 15 14 14 16 17 17 17 17 16 15 15 13
17 19 23 27 31 34 35 35 34 32 29 29 28 24 23 22 20 19 20 21 19 17 17 17 13 13 14 12 13 13 12 13 12 10 10 10 10 13 13 10 11 12 10 8 11 14 15 16 17 15 13 14 14 12 11 9 7 5 8 10 10 9 8 7 7 9 10 9 10 11 11 11 13 14 15 16 17 17 17 19 20 19 19 19 17
16 19 23 26 30 33 34 33 33 31 29 29 27 24 23 22 21 20 20 21 20 18 19 18 15 15 15 14 13 13 12 12 12 11 10 10 12 14 12 11 13 13 12 11 12 14 12 12 14 14 12 13 11 11 12 10 8 7 6 9 12 11 10 9 8 8 9 9 10 10 11 12 12 14 16 18 17 15 14 15 18 18 21 23 21
13 17 22 26 29 32 34 33 32 30 29 29 26 23 22 22 22 20 20 20 19 19 20 20 16 15 14 13 14 13 12 12 12 12 11 11 13 14 12 13 13 12 14 14 12 13 13 11 11 11 10 11 10 10 11 11 9 9 8 8 9 11 12 11 10 9 9 8 9 9 10 12 12 13 16 18 17 16 15 14 14 14 16 22 23
12 16 22 27 29 30 32 34 33 31 29 27 25 22 22 22 21 21 20 20 20 20 22 21 17 16 15 13 14 14 13 13 12 12 12 11 13 15 13 13 13 11 12 12 10 11 11 10 9 9 8 9 9 9 9 9 9 9 9 9 8 9 11 12 11 11 10 9 10 9 10 10 10 11 13 16 18 20 20 19 18 17 17 18 20
13 16 19 23 28 30 32 33 33 31 28 26 26 25 24 23 23 23 23 23 22 21 22 21 17 16 16 14 14 14 14 13 12 13 13 12 13 15 14 14 14 11 11 13 12 10 10 10 9 9 8 9 9 10 10 9 9 10 10 10 9 9 9 10 10 11 11 12 12 12 12 12 12 12 12 14 17 19 20 20 22 23 23 23 22
10 16 17 17 22 28 32 33 31 30 28 27 28 27 26 25 26 25 24 24 23 22 22 21 17 16 17 15 14 15 14 14 14 14 15 14 13 15 16 16 16 15 14 15 15 12 12 13 13 11 9 9 9 10 10 10 10 10 10 11 11 11 11 10 10 11 12 14 15 15 14 14 15 15 15 15 16 18 19 19 20 22 23 24 24
10 15 15 14 18 26 32 32 30 31 30 29 29 29 28 27 26 26 25 25 24 23 22 21 17 17 17 15 14 15 15 14 14 14 15 15 14 15 17 16 15 16 15 13 13 13 13 13 13 11 9 9 8 7 7 7 7 7 8 9 10 11 11 11 11 12 13 15 16 17 17 17 18 19 19 19 20 20 21 21 22 22 23 24 24
14 15 15 16 19 24 29 30 29 30 31 31 31 30 28 27 27 26 26 25 24 23 21 20 18 16 16 15 14 14 14 13 14 14 14 15 15 16 17 16 14 14 12 11 9 8 8 8 8 8 7 7 7 5 5 6 7 8 8 9 10 11 12 12 13 15 16 17 18 19 20 21 21 22 22 22 23 23 22 23 23 23 25 26 27
17 15 15 18 22 25 26 26 27 28 28 29 30 29 28 28 27 27 27 25 23 22 20 18 17 16 15 14 13 12 13 13 13 13 13 13 15 16 16 16 15 13 10 10 8 6 5 4 4 4 3 2 2 4 6 8 9 11 12 12 13 13 14 16 17 18 19 20 20 21 22 22 22 21 21 22 22 23 24 23 21 22 25 26 28
18 16 14 15 18 23 27 28 27 27 27 26 26 27 29 31 28 27 27 24 21 19 18 16 15 14 13 12 11 10 11 12 12 13 13 13 14 15 15 16 16 13 9 9 10 9 7 6 6 5 4 5 9 10 11 12 12 14 14 15 16 17 18 19 20 20 21 22 21 21 20 20 20 20 20 20 21 24 26 23 20 22 25 26 28
18 17 15 14 14 16 20 25 28 29 29 28 28 29 30 30 26 23 23 22 18 16 15 14 13 12 11 10 10 10 10 11 12 13 14 14 14 15 15 15 14 13 12 13 12 11 10 9 9 9 9 10 14 16 15 15 15 16 16 17 18 19 20 20 20 19 19 19 18 18 17 17 17 18 19 19 20 23 25 23 21 23 25 26 27
18 17 16 14 13 13 13 15 19 24 26 26 27 27 26 24 20 17 16 15 15 14 12 12 11 11 10 10 10 11 11 11 12 13 14 14 13 12 12 12 11 12 14 14 13 12 12 11 11 12 12 13 16 18 18 17 17 17 17 17 18 19 19 19 19 18 18 17 17 17 17 17 18 19 20 21 22 23 24 24 24 25 26 27 27
18 17 15 14 14 14 12 10 11 14 16 17 17 17 16 15 12 10 8 7 9 10 10 9 9 9 9 10 10 11 11 11 12 13 13 13 13 12 11 10 11 12 13 13 13 13 13 13 13 13 14 15 17 19 19 19 18 17 17 17 18 18 18 18 19 20 20 21 21 22 22 23 23 23 24 25 26 26 26 26 26 26 27 28 27
18 18 17 16 15 15 14 12 10 9 10 11 11 12 12 10 8 7 7 7 8 9 9 9 10 10 10 10 10 10 10 10 10 11 12 12 12 12 12 12 12 13 13 14 14 14 15 15 15 16 17 19 19 20 19 18 18 19 20 20 21 21 22 22 23 24 25 25 26 27 27 27 27 27 27 28 28 28 28 27 26 26 26 27 28
19 19 19 19 19 18 18 17 14 11 10 11 12 13 13 12 10 11 11 11 11 11 10 10 10 10 10 10 9 9 9 9 10 10 10 10 11 11 12 12 12 12 13 14 15 15 14 15 16 17 18 19 19 18 17 17 18 19 20 21 21 22 22 22 22 21 21 21 22 22 23 24 25 26 26 26 26 26 27 26 26 26 27 28 28
19 20 21 21 21 22 22 22 20 17 16 16 15 16 16 16 16 15 14 12 11 11 11 10 9 9 9 8 7 7 7 7 7 6 5 6 7 9 9 10 10 10 11 13 13 13 13 14 15 16 16 16 16 16 15 15 15 16 16 17 17 17 16 15 13 13 12 12 13 13 14 17 19 20 20 21 21 21 21 21 21 22 23 25 25
16 18 19 20 20 20 20 20 20 19 18 18 19 19 18 18 19 19 18 16 14 13 12 10 8 8 7 7 7 7 6 4 3 2 3 3 5 6 8 9 10 10 11 11 12 12 12 13 13 13 13 12 12 12 12 11 10 9 9 9 8 8 7 7 7 8 9 9 10 11 11 13 16 18 19 19 19 19 18 16 16 18 19 21 22
17 17 17 17 17 16 16 16 15 15 15 15 16 16 15 14 15 15 14 14 14 14 13 11 8 7 6 5 6 6 4 1 1 1 1 2 3 4 6 7 7 7 7 8 8 9 9 9 9 8 8 8 7 5 4 3 3 2 2 2 2 2 3 4 5 6 7 8 9 10 12 14 17 19 20 21 21 21 19 17 16 17 18 19 20
20 20 19 19 17 15 14 13 11 11 10 10 11 12 12 12 13 13 12 13 13 13 13 12 10 8 5 3 2 2 1 2 2 1 2 2 2 2 3 3 3 3 4 4 4 4 4 4 3 2 2 1 0 2 3 3 3 2 1 1 1 1 2 2 3 4 6 7 8 9 12 14 15 17 20 21 22 22 20 17 15 15 16 18 18
22 22 22 22 21 20 18 17 14 12 11 9 8 9 10 11 12 12 12 12 13 13 12 12 11 9 6 3 2 3 3 3 3 3 5 5 3 3 3 2 2 2 1 1 1 2 3 4 5 5 5 5 5 5 4 4 4 2 1 2 3 3 3 4 5 6 6 8 9 10 11 13 14 17 20 22 23 23 20 16 14 15 16 16 17
19 20 20 20 20 21 21 21 19 18 16 13 10 8 8 9 8 9 10 10 10 11 12 12 11 9 6 4 3 3 4 5 5 6 7 6 5 4 3 3 2 2 3 4 6 7 8 9 9 8 7 6 5 3 2 0 0 1 2 3 4 4 4 5 6 6 6 8 10 11 13 16 18 20 22 22 22 20 17 15 15 15 13 13 15
14 16 17 17 17 17 18 19 18 18 18 17 15 12 9 7 6 6 7 7 7 8 9 10 10 8 6 5 5 5 5 5 6 7 6 5 4 3 3 3 3 4 4 6 8 9 9 8 8 7 6 5 3 2 1 1 2 2 4 5 6 7 7 7 7 8 9 11 13 15 17 19 20 21 21 21 20 16 13 12 13 13 12 14 15
14 15 14 15 15 14 15 15 15 15 16 16 16 15 13 11 9 7 6 6 5 5 6 7 7 6 6 6 6 7 6 6 5 4 3 2 2 3 4 4 4 5 6 7 8 9 8 6 5 4 4 4 3 2 1 2 4 5 6 8 9 9 9 9 10 11 13 15 17 18 19 20 20 20 19 17 15 13 11 11 12 13 15 16 15
12 14 14 13 13 13 12 12 12 12 11 11 13 15 15 14 13 12 12 10 9 8 6 5 4 3 2 2 2 3 3 2 1 1 3 4 5 5 5 5 5 5 5 6 7 7 7 5 4 3 2 1 1 1 2 4 6 7 7 8 10 10 10 11 11 12 14 16 17 19 19 20 19 17 15 12 11 10 10 11 11 12 13 13 11
10 12 12 11 10 10 10 10 11 11 10 9 9 12 14 14 13 13 13 12 11 11 10 8 7 6 6 5 4 3 3 3 3 4 5 5 6 5 4 4 4 4 4 4 5 5 5 4 4 4 3 3 3 3 5 6 8 9 9 9 10 12 12 12 12 13 15 17 18 19 19 17 15 12 11 10 9 8 8 8 8 8 8 8 8
10 10 10 9 8 7 6 7 9 10 10 9 9 9 10 11 10 10 10 11 11 11 11 10 10 9 8 7 6 5 5 4 4 4 4 4 4 4 3 2 2 2 2 3 4 4 4 4 5 5 6 6 6 7 7 8 9 10 10 10 10 12 14 15 15 16 16 17 17 16 14 12 10 10 10 9 7 7 6 6 6 7 7 8 8
8 7 6 7 7 5 3 3 5 7 8 7 7 7 8 8 6 6 6 8 9 11 12 11 11 10 10 10 8 6 6 5 4 4 3 2 3 3 3 3 3 2 2 2 3 3 4 4 5 7 9 9 9 9 9 9 9 10 11 12 12 13 14 15 15 14 13 12 11 10 10 10 10 9 9 8 7 6 5 4 4 4 4 4 5
7 6 4 6 6 2 1 0 2 5 7 7 7 7 7 8 5 3 3 4 6 9 11 11 11 10 10 10 10 8 6 5 4 3 3 2 3 3 4 5 4 4 4 4 3 3 3 3 5 6 7 8 7 7 7 7 9 10 11 11 10 10 10 10 10 11 11 10 10 10 10 9 8 8 8 8 7 7 6 5 4 4 4 3 2
8 9 8 10 9 4 1 2 2 4 6 7 7 5 4 5 4 4 4 3 5 8 10 9 10 9 8 8 8 8 7 6 5 4 3 3 3 3 4 4 4 3 2 2 3 2 2 3 2 2 2 2 2 3 4 5 7 8 9 9 9 10 10 11 12 13 12 11 11 10 9 8 7 7 7 6 6 7 8 9 7 6 6 6 4
8 9 12 14 8 3 4 6 4 5 6 6 5 3 4 5 5 4 4 5 6 6 7 7 7 7 7 6 6 5 6 7 5 4 4 3 2 2 2 2 2 2 2 3 4 5 5 6 7 8 8 7 8 8 9 8 8 8 10 11 13 13 13 13 13 12 11 10 10 9 8 7 7 7 7 6 7 8 9 11 10 8 7 7 6
7 9 13 14 7 3 4 6 5 4 5 4 2 3 6 8 6 4 5 7 8 5 4 4 4 4 4 3 4 4 5 7 5 4 4 3 2 2 2 2 3 4 5 6 7 8 9 9 9 10 10 10 10 10 11 11 10 10 12 13 13 13 13 12 11 10 9 8 7 7 6 6 7 8 9 9 8 7 7 8 10 10 9 9 8
7 7 11 14 7 2 2 3 3 4 4 2 1 0 3 6 5 2 3 7 8 5 3 4 3 2 1 1 2 4 6 8 7 3 3 3 3 5 6 6 6 7 8 9 9 10 10 10 10 10 11 11 11 10 11 12 12 12 13 13 13 12 12 11 10 9 7 7 7 8 7 8 10 11 11 10 10 9 8 7 7 8 8 7 7
7 6 8 12 11 4 2 3 4 5 3 1 1 2 3 5 4 1 3 1 2 2 4 6 4 2 3 2 2 4 7 8 6 3 4 4 5 7 8 9 9 9 8 8 9 9 10 10 9 9 9 10 10 10 10 11 12 12 12 12 12 12 12 11 11 10 9 9 9 9 9 10 10 10 10 10 10 10 9 8 9 9 7 5 4
6 5 6 9 10 7 4 4 4 3 1 1 2 4 2 4 4 2 3 3 2 3 6 5 3 3 2 1 3 5 6 4 2 3 4 4 6 8 10 9 9 9 9 8 8 9 10 10 9 9 9 9 10 11 10 10 10 10 10 10 11 12 12 12 12 12 11 10 9 9 8 8 7 8 9 9 8 8 7 7 7 6 5 3 4
3 4 6 7 7 6 3 1 3 1 3 3 2 5 3 1 3 2 3 3 3 4 4 3 5 5 6 6 5 7 7 5 5 4 4 5 6 8 9 8 9 10 10 11 10 10 10 10 11 11 10 10 11 10 9 8 7 7 7 8 9 10 11 11 10 10 10 9 9 8 6 5 5 7 8 7 6 7 6 5 4 4 3 4 5
2 0 2 4 6 7 5 3 3 3 5 4 2 5 6 3 0 1 2 2 1 1 1 4 6 5 4 6 7 9 8 7 6 5 5 6 6 6 7 7 8 10 11 12 13 12 11 10 10 11 11 11 11 10 8 6 6 6 7 8 8 8 8 8 7 8 9 9 8 8 7 5 4 4 4 5 5 6 6 6 6 5 5 6 7
6 4 1 2 4 6 5 4 4 4 5 5 6 5 8 8 3 2 4 4 2 2 2 2 3 2 1 3 5 7 7 7 6 4 4 4 4 5 6 6 7 8 9 11 12 12 11 11 10 10 10 11 10 9 7 6 5 5 6 6 6 6 5 5 6 7 8 7 7 7 8 7 5 4 4 5 6 6 5 6 7 8 8 8 9
9 7 3 2 2 5 5 4 4 4 6 11 11 3 9 10 4 3 5 6 4 2 2 4 5 3 1 1 1 3 5 7 7 6 5 4 3 4 5 5 6 6 7 8 9 10 10 10 10 10 10 9 9 8 7 6 5 5 5 5 5 5 4 4 4 5 5 5 5 6 7 6 4 4 5 6 6 5 5 6 7 8 9 10 10
9 8 6 3 2 6 6 4 4 6 9 12 9 3 10 8 4 4 5 4 3 2 2 4 5 4 2 3 3 1 4 5 5 6 6 5 3 2 3 4 5 5 6 6 8 8 8 9 9 8 8 8 9 8 7 6 5 5 5 5 5 5 4 3 2 2 2 2 3 4 5 5 4 3 4 4 3 2 3 3 4 5 7 8 9
11 9 7 3 1 5 6 6 6 8 9 9 6 3 9 6 3 4 5 5 6 5 5 6 5 4 4 5 3 1 2 3 4 4 6 6 4 2 3 4 5 6 6 6 7 7 7 7 7 7 7 7 7 7 6 5 5 5 5 4 5 5 4 3 2 2 2 3 3 2 2 3 4 4 5 5 4 2 1 1 1 2 3 5 6
11 10 8 5 2 3 6 8 9 9 7 5 5 0 6 7 5 4 4 4 4 6 9 9 6 4 5 5 4 3 3 3 3 3 4 6 5 2 4 6 6 6 7 7 7 8 8 8 8 8 8 8 7 7 7 7 6 6 6 6 6 5 5 4 3 3 3 4 4 4 4 5 6 7 8 8 7 5 4 4 3 3 3 3 4
8 10 9 8 6 2 5 9 9 8 6 4 4 4 3 7 8 6 4 3 5 8 8 7 6 6 5 4 4 4 4 3 2 4 4 6 5 2 2 4 6 6 6 7 8 8 9 9 9 9 9 9 9 8 8 8 7 7 6 6 5 5 4 3 3 3 4 5 5 6 7 7 7 8 9 10 9 8 8 8 8 7 5 3 2
9 10 10 10 9 4 4 7 9 8 7 5 4 3 4 7 8 6 4 4 8 8 5 4 6 7 5 3 4 6 7 6 4 4 5 5 4 3 2 2 3 4 5 6 7 7 8 8 8 8 8 7 7 7 6 6 5 5 5 4 4 4 3 3 3 4 5 6 7 9 10 10 10 10 10 10 10 10 10 10 11 10 8 5 4
9 11 11 12 11 7 4 5 7 8 8 7 6 4 2 5 6 6 5 5 6 7 6 6 7 7 6 5 6 6 8 8 6 6 6 6 5 5 3 1 1 2 3 4 5 6 6 5 5 5 5 5 4 4 4 4 4 4 4 4 4 4 4 4 5 6 7 8 10 12 13 12 11 9 9 8 8 7 7 7 8 8 7 6 6
Wind_Direction
242 232 225 219 215 207 198 194 191 187 184 186 190 189 185 180 176 176 175 173 172 162 161 170 176 177 186 173 152 146 152 154 144 136 133 131 133 136 134 134 148 162 165 168 171 175 178 177 176 176 168 164 166 161 158 161 164 171 194 210 202 200 199 195 194 192 195 217 241 235 220 221 217 209 209 213 212 213 218 218 216 214 221 236 241
234 233 229 220 214 207 198 193 191 188 187 190 193 190 184 179 179 179 175 173 170 156 155 167 175 175 170 160 156 154 151 150 146 136 129 126 127 131 137 139 138 147 160 166 169 174 177 176 176 171 162 160 157 150 150 156 163 173 179 185 194 199 201 197 195 194 196 208 221 218 213 233 240 211 201 206 215 223 233 231 225 218 222 244 257
229 231 231 223 212 203 198 195 193 190 189 193 194 189 183 180 180 180 175 170 162 152 154 167 169 155 143 150 156 155 150 150 147 141 139 139 140 152 172 163 151 134 156 165 166 170 173 173 172 167 161 159 152 145 150 158 167 179 174 168 175 183 194 205 205 201 201 202 207 213 215 227 236 205 186 199 249 257 260 251 240 235 239 262 281
224 224 226 221 208 200 197 195 194 193 192 195 193 186 184 182 182 181 178 168 155 152 162 168 156 138 132 142 148 149 151 152 149 153 155 148 139 138 150 158 161 145 148 155 159 167 172 169 168 166 161 158 152 149 155 161 172 187 183 183 186 169 178 202 212 212 211 208 210 218 225 234 244 226 206 231 255 262 274 274 267 271 271 271 290
225 222 220 215 207 200 195 192 193 194 194 193 188 186 186 182 180 183 179 163 153 156 165 159 148 141 138 140 142 146 153 153 153 166 166 154 142 134 138 147 153 142 141 148 154 160 164 162 161 159 156 157 156 157 161 162 171 184 185 186 196 180 165 185 203 214 221 219 216 217 225 236 243 243 235 235 242 249 260 270 277 291 292 276 276
225 224 218 210 204 198 191 190 192 193 192 189 186 188 189 184 182 181 170 158 155 161 162 153 150 149 143 138 143 149 155 152 157 174 168 164 162 148 142 146 154 152 143 142 150 151 150 151 152 152 155 160 164 168 176 168 159 172 182 183 189 181 169 175 191 203 213 218 214 215 221 224 228 235 239 240 242 246 253 264 270 277 285 280 274
232 228 219 208 200 195 191 190 192 191 188 186 186 188 188 187 184 173 161 156 158 163 157 149 149 152 151 148 149 156 159 156 163 171 160 166 174 158 147 144 154 157 143 134 152 155 152 153 156 158 163 168 176 186 190 184 168 156 159 164 168 174 177 177 177 191 203 206 207 217 227 225 223 232 244 249 247 246 252 261 265 268 272 272 270
233 227 220 209 197 193 192 190 191 190 186 183 184 183 184 185 180 170 164 161 162 162 155 149 151 158 162 161 158 161 164 161 165 164 155 159 163 157 151 141 142 148 140 130 144 152 154 162 167 169 169 171 181 195 196 192 191 161 138 146 159 165 172 175 174 189 202 207 214 225 231 227 221 230 244 247 244 244 250 256 262 269 274 274 272
232 224 219 211 199 193 191 188 187 188 185 181 179 178 178 177 171 168 168 168 166 164 157 154 159 164 166 165 164 166 167 167 167 163 158 156 155 157 156 147 144 146 142 134 142 152 153 157 167 172 172 173 183 198 201 200 202 195 169 160 166 169 168 172 183 192 197 209 225 233 236 231 227 229 233 235 242 256 263 260 264 273 275 271 269
228 222 219 212 198 190 187 185 184 185 182 178 178 176 171 169 168 171 173 171 167 164 161 162 165 168 169 167 169 171 171 171 170 167 164 160 160 161 156 152 153 149 148 146 147 155 158 156 163 171 175 185 197 205 205 207 210 216 219 205 191 187 182 183 192 193 192 203 214 224 234 236 238 237 233 234 245 257 262 261 267 278 274 264 263
219 216 215 205 192 185 184 183 184 184 179 174 176 173 166 166 171 172 167 163 163 163 165 168 169 171 174 171 169 172 173 173 171 168 166 161 162 162 156 158 161 151 152 160 153 152 163 168 173 180 184 191 201 207 207 210 214 219 225 227 224 214 202 201 206 205 206 209 208 215 223 225 232 238 237 239 244 249 254 256 259 265 268 265 264
207 203 203 197 189 184 180 180 182 181 176 172 173 171 165 164 169 168 161 162 167 168 168 171 171 173 179 177 170 171 173 173 171 168 164 160 163 164 160 164 167 157 156 168 166 160 164 173 184 195 202 203 204 209 213 218 220 222 226 231 234 234 227 225 228 227 227 229 229 231 231 231 236 239 244 249 249 250 256 257 256 258 261 264 264
179 178 182 191 193 184 178 179 179 175 175 174 171 169 165 165 167 166 163 167 170 170 171 175 173 173 179 179 173 172 172 172 171 169 166 166 169 169 165 164 165 162 164 171 176 175 171 176 184 187 196 209 212 213 216 219 221 222 227 234 238 242 246 250 254 254 249 247 246 246 247 250 252 252 256 261 261 262 263 262 261 260 261 262 263
154 163 168 176 186 183 178 177 173 170 174 176 173 169 167 167 170 170 170 172 173 172 174 177 173 171 176 180 178 176 176 175 174 173 171 172 174 172 170 166 158 155 159 165 171 176 175 179 181 174 176 192 199 206 220 226 231 231 230 236 241 245 250 255 259 260 258 257 256 255 256 259 260 260 262 264 264 266 267 267 268 267 267 268 269
134 153 162 158 164 174 178 176 172 171 173 175 173 171 169 168 169 171 172 172 172 172 174 176 174 171 172 176 177 178 182 184 181 179 177 175 175 176 178 178 169 161 163 163 157 162 172 177 180 178 182 188 187 204 232 241 249 252 251 253 255 255 255 257 260 263 263 262 261 259 258 260 261 262 262 264 266 266 265 265 268 269 271 272 272
98 122 141 146 156 171 179 181 181 180 178 176 173 171 171 171 171 172 173 170 167 168 168 168 169 169 168 171 174 177 184 190 191 190 188 185 183 181 181 183 181 173 174 180 179 180 189 199 214 216 220 244 248 245 254 261 261 261 261 264 266 266 263 263 265 268 269 268 267 265 265 266 267 265 263 265 267 267 265 266 269 272 273 273 273
74 87 100 116 138 160 174 182 186 187 185 181 175 170 170 170 168 167 167 164 162 164 166 166 166 167 170 172 175 176 179 185 192 197 202 205 204 200 199 201 199 193 200 212 211 213 221 232 246 243 247 296 301 286 278 278 274 269 269 270 270 269 266 266 268 269 270 270 270 270 272 272 272 270 269 270 272 273 275 277 280 281 280 280 279
76 81 84 86 96 122 148 162 171 177 178 175 173 170 167 166 164 158 155 156 155 154 159 165 168 174 181 186 189 190 186 185 191 199 207 215 220 220 222 228 227 222 231 240 241 243 248 252 257 256 259 283 294 288 282 280 276 274 273 272 270 268 267 267 267 265 265 267 268 269 271 272 273 274 274 276 277 280 285 289 290 289 288 288 288
77 83 90 94 90 88 101 121 139 151 154 153 156 158 156 156 154 145 141 147 152 154 161 172 179 184 192 196 194 191 185 182 186 195 204 209 213 215 220 231 236 233 237 247 254 259 263 266 271 273 274 280 283 280 278 277 275 273 272 269 266 265 265 267 268 268 267 266 267 269 270 272 276 277 278 279 280 282 286 289 291 292 292 291 292
74 80 89 98 102 100 94 88 95 109 115 119 128 133 132 132 133 135 142 146 150 160 174 184 185 184 187 191 192 189 187 185 185 192 200 203 204 206 210 218 227 234 242 253 258 260 264 268 272 274 276 277 274 272 272 273 273 274 274 274 271 270 269 271 274 277 278 276 276 278 277 277 278 279 280 280 281 280 280 282 285 288 290 291 291
76 81 86 91 97 103 109 111 107 99 95 100 108 111 112 114 120 144 168 167 154 158 166 171 172 172 177 187 193 196 200 200 196 198 204 207 209 213 217 222 229 236 241 248 251 254 257 261 265 270 274 275 272 272 274 277 277 278 279 280 280 279 278 278 280 282 283 284 283 283 283 282 282 282 281 279 278 278 277 278 280 283 286 288 289
74 78 81 84 86 89 94 100 108 116 116 116 118 118 120 128 133 138 147 150 148 150 154 156 160 165 172 180 189 197 203 206 206 208 211 215 218 221 224 228 231 234 238 244 249 252 255 260 266 270 272 271 272 275 279 280 279 280 281 282 282 282 283 284 285 287 289 290 290 289 289 288 286 284 282 281 280 279 278 277 277 279 282 284 286
73 76 78 79 81 83 84 84 86 93 100 108 114 116 117 119 118 113 113 115 120 126 130 134 145 155 161 167 175 188 198 203 210 216 219 226 234 237 238 240 240 241 246 252 257 261 266 270 272 274 276 278 282 285 287 287 286 285 285 285 286 288 291 295 298 303 306 307 305 303 298 292 290 292 293 292 290 287 283 281 281 284 286 287 287
70 73 77 80 82 85 88 89 89 90 93 99 105 109 110 111 108 104 100 97 97 100 103 109 121 133 143 155 168 180 189 195 204 218 229 243 251 253 255 257 259 261 264 266 270 273 275 275 276 279 284 288 290 293 297 301 303 302 299 300 301 303 310 321 331 335 333 324 315 310 307 308 312 315 313 309 304 300 299 300 300 299 295 290 287
67 68 69 71 75 80 85 88 92 94 96 99 103 106 110 113 114 115 115 110 103 99 100 103 106 113 132 162 179 184 184 160 116 143 236 266 265 260 259 261 264 267 268 270 274 277 279 283 285 285 285 286 291 303 320 340 359 356 345 349 354 347 351 357 356 346 332 321 317 315 315 320 324 323 319 317 313 310 310 312 311 308 301 293 290
65 66 65 63 63 66 68 69 73 81 87 95 103 108 110 115 122 127 130 129 126 122 123 126 128 131 143 172 208 230 351 43 73 73 10 350 332 298 284 280 281 278 273 273 278 282 287 295 295 288 283 278 112 103 109 114 111 109 126 240 269 299 321 328 324 318 313 312 311 307 308 312 315 316 316 316 316 314 311 308 307 308 306 303 301
70 66 64 62 60 57 56 56 59 63 65 73 96 116 122 124 131 137 137 137 140 143 148 152 153 156 165 189 261 301 329 346 354 353 351 352 358 357 347 343 343 338 348 20 49 62 70 78 83 85 90 99 106 111 122 136 141 151 217 271 281 293 298 290 293 303 308 306 300 297 300 304 309 312 313 314 316 316 311 307 308 310 310 309 307
78 72 67 64 59 55 53 53 55 57 56 58 71 98 124 134 139 145 145 144 147 153 159 166 169 172 184 211 243 275 302 314 321 330 334 339 348 352 355 13 35 53 65 76 87 91 90 92 95 95 95 94 90 90 102 147 191 222 273 292 294 296 299 299 302 305 301 294 291 294 299 304 308 312 313 314 317 318 310 302 299 298 304 314 313
71 69 67 65 61 54 50 50 51 51 50 51 57 68 88 108 124 143 152 154 160 165 170 179 185 186 196 220 244 258 275 297 313 318 321 326 342 359 22 52 73 86 94 101 107 110 111 114 117 117 113 111 113 122 151 262 277 275 280 286 288 289 291 298 306 309 304 301 301 304 307 310 313 315 315 316 318 318 308 295 286 288 304 315 311
64 65 62 64 65 60 51 46 44 44 42 44 49 57 64 72 80 93 106 113 123 142 163 181 194 204 215 228 246 259 271 289 305 315 329 10 54 65 65 73 90 106 119 129 134 137 138 134 128 128 130 141 157 161 160 257 271 278 283 285 286 287 290 294 301 307 309 310 312 312 313 316 317 316 315 318 321 318 305 294 290 296 305 306 299
65 67 64 66 71 69 59 47 39 37 36 36 43 52 57 63 70 75 77 79 80 82 93 113 126 135 158 185 217 247 267 294 340 45 64 63 62 63 65 74 93 114 132 147 156 160 162 159 155 156 162 182 208 264 304 292 288 289 287 286 290 295 296 295 296 302 308 311 313 316 318 319 318 317 318 325 329 319 303 294 293 296 298 298 295
67 67 65 69 74 74 73 67 55 47 43 40 44 49 48 51 62 71 73 73 70 70 69 67 68 75 79 83 91 95 88 84 75 65 59 54 54 59 67 78 99 129 153 174 185 188 193 200 200 207 240 275 292 310 315 308 303 300 296 292 294 298 302 304 304 305 307 308 311 316 320 322 325 333 345 352 346 331 316 306 301 298 294 290 284
75 72 65 66 73 80 83 81 76 71 61 50 48 50 45 44 52 62 71 73 65 60 60 58 58 64 69 70 77 80 78 77 71 60 56 55 58 67 72 65 80 135 190 218 229 238 251 251 245 248 262 275 284 292 297 299 300 302 303 303 302 305 310 312 311 308 307 310 317 324 331 344 360 11 11 3 347 335 331 324 315 306 295 283 272
76 76 69 57 62 86 99 78 86 97 86 66 62 58 41 30 25 30 52 71 67 58 56 56 58 64 68 68 71 78 85 88 87 78 71 61 52 44 22 18 25 17 337 314 304 303 301 292 282 275 272 273 275 279 281 284 287 291 297 302 306 310 312 311 312 318 323 329 340 353 8 21 25 23 17 12 12 12 12 11 7 359 342 315 289
42 46 48 23 15 18 199 172 104 108 99 97 105 89 42 16 6 21 47 65 67 62 60 58 57 62 68 70 71 77 84 88 92 92 78 53 35 23 5 359 2 357 346 352 1 351 328 305 285 275 269 264 262 267 276 281 285 294 306 315 323 329 330 335 348 5 12 14 22 34 38 34 31 31 33 41 52 61 67 69 70 75 78 81 97
18 20 13 1 355 350 14 58 106 121 110 110 118 110 55 27 36 71 84 83 78 75 71 66 59 56 57 62 67 73 76 71 65 63 57 36 16 5 344 333 343 350 352 17 39 37 19 9 9 12 359 337 325 329 329 321 321 331 350 10 23 28 29 33 36 36 33 35 43 48 46 41 40 38 39 54 76 81 75 68 67 84 97 98 99
7 8 7 8 12 51 68 60 82 114 116 114 111 89 68 61 58 67 87 106 113 102 83 70 60 50 43 40 43 58 70 64 48 35 30 21 12 4 338 331 4 48 93 82 65 58 52 52 58 62 56 45 34 29 30 30 29 34 47 53 53 51 51 52 50 45 42 47 54 52 43 36 34 34 42 64 86 87 75 67 65 69 73 73 68
0 359 9 18 36 110 89 71 89 100 101 116 118 62 70 81 85 95 107 114 127 134 103 75 59 38 25 11 359 18 40 37 23 11 4 4 38 64 56 58 73 80 83 73 62 58 60 64 69 73 72 65 54 49 57 66 70 71 70 68 65 63 60 57 54 52 53 56 54 43 35 40 55 64 66 70 75 73 68 70 73 68 62 61 55
8 356 12 27 43 131 131 85 83 71 72 98 206 274 83 88 93 124 123 113 121 127 97 62 45 28 25 294 319 345 359 357 352 358 18 33 78 88 77 71 73 72 69 67 65 63 66 73 79 81 79 77 74 76 83 85 82 80 76 73 70 68 64 62 59 56 54 51 42 41 54 76 84 78 66 58 57 55 50 55 60 55 51 54 49
16 357 15 34 42 58 112 93 48 34 48 94 176 169 119 90 89 205 249 230 112 73 21 17 31 99 149 183 291 322 332 339 349 35 62 60 79 85 75 66 65 67 69 72 74 75 77 82 88 89 88 90 95 100 100 95 88 81 76 70 64 61 63 66 66 61 57 54 57 70 88 95 87 67 53 51 49 42 38 42 42 36 34 37 31
24 15 11 25 33 42 72 88 66 38 8 254 214 193 156 75 81 164 238 268 283 318 339 355 42 93 95 51 346 340 343 355 50 99 87 73 79 81 77 71 67 68 72 77 82 85 84 84 89 92 92 96 104 107 104 96 86 76 68 61 55 56 62 65 65 65 63 61 67 84 98 99 79 51 43 46 40 25 27 44 49 43 42 38 24
26 29 7 5 8 4 4 131 159 219 320 320 260 220 217 72 76 136 211 235 253 283 316 22 70 64 47 39 23 7 17 51 90 98 80 79 83 81 79 78 74 73 75 76 79 82 81 81 87 95 98 100 104 106 102 91 76 64 55 48 46 53 60 59 59 66 69 67 68 70 71 74 67 46 39 44 38 23 24 37 39 37 38 20 6
245 125 347 343 341 333 317 237 210 292 326 327 276 233 228 224 44 345 237 201 182 274 48 71 66 52 42 40 24 10 21 50 71 80 84 90 91 85 82 80 75 74 75 75 75 75 75 76 84 95 103 107 106 101 93 79 58 44 39 38 39 43 46 47 59 77 81 77 76 68 52 43 43 38 37 43 32 15 8 10 6 2 2 1 357
233 214 202 349 320 306 292 265 265 297 321 331 326 276 225 214 224 290 258 248 269 276 222 144 94 70 16 20 18 13 16 25 31 50 89 105 102 88 82 81 78 74 74 76 77 77 77 79 85 95 104 110 110 106 97 83 61 45 43 42 36 29 30 43 72 88 85 75 72 65 53 46 51 41 10 5 11 13 13 17 14 5 358 357 1
242 229 190 86 332 299 285 271 270 288 325 339 339 289 200 196 205 247 256 265 285 288 223 185 162 148 167 280 325 1 2 2 8 26 55 82 102 93 81 80 83 79 75 78 81 83 83 83 85 90 95 94 93 92 88 80 65 51 47 41 30 29 40 57 77 89 81 60 52 49 38 32 51 57 21 2 10 28 33 29 28 22 11 4 2
245 222 183 140 333 299 282 280 298 310 326 339 344 198 183 187 209 225 231 253 271 250 184 163 163 169 191 201 204 284 344 349 2 28 39 41 47 74 83 89 92 86 82 83 83 83 86 84 80 81 82 75 70 69 68 65 55 42 33 28 29 34 44 50 52 73 71 35 33 44 32 14 19 40 26 7 9 38 38 27 27 28 20 11 5
244 220 192 167 322 297 279 284 307 311 317 339 357 194 194 198 209 215 224 255 265 239 188 153 142 157 183 189 193 248 310 320 343 17 26 19 13 43 84 98 102 93 86 87 84 80 81 82 78 76 75 69 66 64 60 55 52 46 42 46 50 53 61 71 69 57 22 342 326 325 343 337 322 320 329 333 330 312 306 355 4 357 359 359 355
245 226 211 201 206 290 287 285 294 299 304 341 20 78 207 208 209 219 240 266 256 211 187 175 165 171 191 210 237 261 266 284 304 329 0 5 5 34 76 87 99 98 88 85 86 82 82 83 82 80 78 74 73 73 70 68 70 71 70 74 78 77 79 79 68 42 20 5 350 335 323 311 303 305 310 316 320 313 295 298 306 288 286 325 339
241 232 230 218 199 230 296 286 283 288 291 312 12 50 152 190 203 217 231 213 175 170 174 181 183 185 204 231 243 234 231 246 271 278 310 345 358 5 55 82 98 101 94 91 89 86 85 86 85 84 83 81 78 77 75 73 72 71 68 68 71 70 63 53 38 18 5 2 0 355 345 332 323 316 309 305 306 302 290 287 293 292 284 291 328
231 238 245 229 209 214 289 284 275 272 265 268 310 16 121 164 186 198 202 180 169 167 176 203 200 198 214 230 215 210 216 222 245 287 313 340 354 346 348 60 93 96 97 99 96 91 89 89 86 83 81 77 74 72 70 65 60 57 51 42 36 34 25 10 355 345 342 341 339 334 332 330 325 318 310 304 302 301 293 285 284 286 285 272 259
247 251 251 230 211 211 244 260 264 268 262 262 283 291 198 170 170 173 182 194 189 183 194 213 202 188 192 208 214 215 215 219 240 288 312 317 320 319 313 307 85 83 87 91 91 92 93 89 82 78 73 67 60 55 49 42 35 30 22 11 3 355 346 336 331 326 328 330 326 323 325 330 331 327 326 327 327 326 320 304 290 285 280 261 243